Location: Unspecified
(0.0000°N, 0.0000°E)
Time: 14:45:23
(UTC+00:00)

COSMOS 2590 (GLONASS) - Visible Passes

Search period start: 13 November 2025 00:00
Search period end: 23 November 2025 00:00
Orbit: 19094 x 19165 km, 64.8° (Epoch: 12 November)

Date Brightness Start Highest point End Pass type
(mag) Time Alt. Az. Time Alt. Az. Time Alt. Az.
14 Nov ? 04:58:09 10° NNW 07:10:15 65° W 09:51:29 10° S visible
15 Nov ? 03:14:52 10° NNW 05:43:59 87° E 08:09:50 10° SSE visible
16 Nov ? 01:33:02 10° N 04:17:45 60° E 06:25:54 10° SSE visible
16 Nov ? 19:33:05 10° SW 21:01:46 26° W 04:34:04 10° SSE visible
17 Nov ? 17:35:46 10° SSW 19:36:45 51° W 01:49:04 10° ESE visible
18 Nov ? 15:50:12 10° SSW 18:10:36 79° W 20:44:08 10° NNE visible
19 Nov ? 14:08:16 10° S 16:44:12 73° E 19:01:45 10° NNE visible
22 Nov ? 04:25:45 10° NNW 06:37:50 65° W 09:19:05 10° S visible
